Location: ?astrovice
(49.6513°N, 14.9287°E)
Time: 18:11:06
(UTC+00:00)

Cosmos 2322 Rocket - Pass Details

Date: 09 April 2020
Orbit: 834 x 849 km, 71.0° (Epoch: 29 May)

Event Time Altitude Azimuth Distance (km) Brightness Sun altitude
Rises 21:35:03 0° 333° (NNW) 3,407 6.6 -29.3°
Reaches altitude 10° 21:37:35 10° 338° (NNW) 2,466 5.6 -29.5°
Enters shadow 21:42:49 51° 44° (NE) 1,053 2.7 -29.8°
